Location: *
(58.7167°N, 26.1833°E)
Time: 03:07:17
(UTC+00:00)

COSMOS 2406 - Pass Details

Date: 25 August 2019
Orbit: 842 x 865 km, 71.0° (Epoch: 19 September)

Event Time Altitude Azimuth Distance (km) Brightness Sun altitude
Rises 20:18:48 0° 243° (WSW) 3,413 6.4 -16.6°
Reaches altitude 10° 20:21:21 10° 249° (WSW) 2,484 5.7 -16.8°
Maximum altitude 20:26:50 46° 323° (NW) 1,142 4.4 -17.1°
Drops below altitude 10° 20:32:23 10° 36° (NE) 2,508 6.0 -17.5°
Sets 20:34:58 0° 43° (NE) 3,451 6.7 -17.6°
